Time,TemperatureF,DewpointF,PressureIn,WindDirection,WindDirectionDegrees,WindSpeedMPH,WindSpeedGustMPH,Humidity,HourlyPrecipIn,Conditions,Clouds,dailyrainin,SoftwareType,DateUTC
2013-03-06 00:01:00,49.0,18.0,30.18,South,181,0.0,0.0,29,0.00,,,-99.99,,2013-03-06 07:01:00,
2013-03-06 00:11:00,49.0,18.0,30.18,South,181,0.0,0.0,29,0.00,,,-99.99,,2013-03-06 07:11:00,
2013-03-06 00:22:00,49.0,19.0,30.18,SSE,158,1.0,6.0,30,0.00,,,-99.99,,2013-03-06 07:22:00,
2013-03-06 00:32:00,49.0,19.0,30.18,SSE,163,3.0,6.0,30,0.00,,,-99.99,,2013-03-06 07:32:00,
2013-03-06 00:42:00,49.0,19.0,30.18,SSE,163,3.0,6.0,30,0.00,,,-99.99,,2013-03-06 07:42:00,
2013-03-06 00:52:00,49.0,19.0,30.17,SE,144,5.0,5.0,30,0.00,,,-99.99,,2013-03-06 07:52:00,
2013-03-06 01:01:00,50.0,20.0,30.18,SSE,163,0.0,8.0,30,0.00,,,-99.99,,2013-03-06 08:01:00,
2013-03-06 01:11:00,50.0,20.0,30.18,SSE,163,0.0,8.0,30,0.00,,,-99.99,,2013-03-06 08:11:00,
2013-03-06 01:21:00,49.0,19.0,30.18,SSE,163,0.0,0.0,30,0.00,,,-99.99,,2013-03-06 08:21:00,
2013-03-06 01:32:00,49.0,19.0,30.17,SSE,157,2.0,6.0,30,0.00,,,-99.99,,2013-03-06 08:32:00,
2013-03-06 01:42:00,49.0,19.0,30.17,SSE,157,2.0,6.0,30,0.00,,,-99.99,,2013-03-06 08:42:00,
2013-03-06 01:52:00,49.0,19.0,30.16,SSE,161,3.0,5.0,30,0.00,,,-99.99,,2013-03-06 08:52:00,
2013-03-06 02:01:00,50.0,20.0,30.15,South,188,4.0,9.0,30,0.00,,,-99.99,,2013-03-06 09:01:00,
2013-03-06 02:12:00,50.0,20.0,30.15,South,188,4.0,9.0,30,0.00,,,-99.99,,2013-03-06 09:12:00,
2013-03-06 02:21:00,50.0,20.0,30.15,South,187,4.0,6.0,30,0.00,,,-99.99,,2013-03-06 09:21:00,
2013-03-06 02:31:00,49.0,20.0,30.16,SW,215,0.0,5.0,31,0.00,,,-99.99,,2013-03-06 09:31:00,
2013-03-06 02:42:00,49.0,20.0,30.16,SW,215,0.0,5.0,31,0.00,,,-99.99,,2013-03-06 09:42:00,
2013-03-06 02:52:00,49.0,20.0,30.16,South,180,2.0,3.0,31,0.00,,,-99.99,,2013-03-06 09:52:00,
2013-03-06 03:01:00,49.0,20.0,30.15,SSW,206,5.0,8.0,31,0.00,,,-99.99,,2013-03-06 10:01:00,
2013-03-06 03:11:00,49.0,20.0,30.15,SSW,206,5.0,8.0,31,0.00,,,-99.99,,2013-03-06 10:11:00,
2013-03-06 03:21:00,49.0,20.0,30.15,SSW,192,3.0,8.0,31,0.00,,,-99.99,,2013-03-06 10:21:00,
2013-03-06 03:31:00,49.0,20.0,30.14,SSW,202,6.0,8.0,32,0.00,,,-99.99,,2013-03-06 10:31:00,
2013-03-06 03:42:00,49.0,20.0,30.14,SSW,202,6.0,8.0,32,0.00,,,-99.99,,2013-03-06 10:42:00,
2013-03-06 03:51:00,48.0,20.0,30.14,SW,223,4.0,8.0,32,0.00,,,-99.99,,2013-03-06 10:51:00,
2013-03-06 04:02:00,48.0,20.0,30.14,South,187,4.0,8.0,33,0.00,,,-99.99,,2013-03-06 11:02:00,
2013-03-06 04:11:00,48.0,20.0,30.14,South,187,4.0,8.0,33,0.00,,,-99.99,,2013-03-06 11:11:00,
2013-03-06 04:22:00,48.0,20.0,30.14,South,171,6.0,7.0,33,0.00,,,-99.99,,2013-03-06 11:22:00,
2013-03-06 04:32:00,47.0,19.0,30.13,SSE,163,9.0,11.0,33,0.00,,,-99.99,,2013-03-06 11:32:00,
2013-03-06 04:42:00,47.0,19.0,30.13,SSE,163,9.0,11.0,33,0.00,,,-99.99,,2013-03-06 11:42:00,
2013-03-06 04:52:00,47.0,20.0,30.14,South,177,6.0,6.0,34,0.00,,,-99.99,,2013-03-06 11:52:00,
2013-03-06 05:02:00,47.0,20.0,30.14,South,191,0.0,6.0,34,0.00,,,-99.99,,2013-03-06 12:02:00,
2013-03-06 05:11:00,47.0,20.0,30.14,South,191,0.0,6.0,34,0.00,,,-99.99,,2013-03-06 12:11:00,
2013-03-06 05:21:00,47.0,20.0,30.14,South,184,3.0,0.0,34,0.00,,,-99.99,,2013-03-06 12:21:00,
2013-03-06 05:32:00,47.0,21.0,30.14,ESE,119,0.0,2.0,35,0.00,,,-99.99,,2013-03-06 12:32:00,
2013-03-06 05:42:00,47.0,21.0,30.14,ESE,119,0.0,2.0,35,0.00,,,-99.99,,2013-03-06 12:42:00,
2013-03-06 05:52:00,48.0,20.0,30.14,South,175,0.0,9.0,33,0.00,,,-99.99,,2013-03-06 12:52:00,
2013-03-06 06:02:00,48.0,21.0,30.14,SSE,167,2.0,6.0,34,0.00,,,-99.99,,2013-03-06 13:02:00,
2013-03-06 06:11:00,48.0,21.0,30.14,SSE,167,2.0,6.0,34,0.00,,,-99.99,,2013-03-06 13:11:00,
2013-03-06 06:22:00,48.0,21.0,30.14,SSW,195,0.0,2.0,34,0.00,,,-99.99,,2013-03-06 13:22:00,
2013-03-06 06:32:00,47.0,20.0,30.14,SSE,161,0.0,4.0,34,0.00,,,-99.99,,2013-03-06 13:32:00,
2013-03-06 06:42:00,47.0,20.0,30.14,SSE,161,0.0,4.0,34,0.00,,,-99.99,,2013-03-06 13:42:00,
2013-03-06 06:52:00,47.0,21.0,30.14,SE,125,0.0,3.0,35,0.00,,,-99.99,,2013-03-06 13:52:00,
2013-03-06 07:01:00,47.0,21.0,30.14,SE,125,0.0,0.0,35,0.00,,,-99.99,,2013-03-06 14:01:00,
2013-03-06 07:11:00,47.0,21.0,30.14,SE,125,0.0,0.0,35,0.00,,,-99.99,,2013-03-06 14:11:00,
2013-03-06 07:22:00,47.0,21.0,30.14,SSE,156,0.0,0.0,35,0.00,,,-99.99,,2013-03-06 14:22:00,
2013-03-06 07:32:00,47.0,21.0,30.14,SSE,156,0.0,0.0,35,0.00,,,-99.99,,2013-03-06 14:32:00,
2013-03-06 07:42:00,47.0,21.0,30.14,SSE,156,0.0,0.0,35,0.00,,,-99.99,,2013-03-06 14:42:00,
2013-03-06 07:52:00,47.0,21.0,30.14,SSE,156,0.0,0.0,35,0.00,,,-99.99,,2013-03-06 14:52:00,
2013-03-06 08:02:00,49.0,22.0,30.14,South,185,4.0,8.0,34,0.00,,,-99.99,,2013-03-06 15:02:00,
2013-03-06 08:11:00,49.0,22.0,30.14,South,185,4.0,8.0,34,0.00,,,-99.99,,2013-03-06 15:11:00,
2013-03-06 08:21:00,49.0,22.0,30.14,SSW,203,5.0,10.0,34,0.00,,,-99.99,,2013-03-06 15:21:00,
2013-03-06 08:32:00,50.0,23.0,30.14,SSE,160,7.0,7.0,34,0.00,,,-99.99,,2013-03-06 15:32:00,
2013-03-06 08:42:00,50.0,23.0,30.14,SSE,160,7.0,7.0,34,0.00,,,-99.99,,2013-03-06 15:42:00,
2013-03-06 08:52:00,50.0,21.0,30.14,SSW,205,7.0,8.0,32,0.00,,,-99.99,,2013-03-06 15:52:00,
2013-03-06 09:01:00,50.0,21.0,30.12,SSW,203,7.0,11.0,32,0.00,,,-99.99,,2013-03-06 16:01:00,
2013-03-06 09:11:00,50.0,21.0,30.12,SSW,203,7.0,11.0,32,0.00,,,-99.99,,2013-03-06 16:11:00,
2013-03-06 09:21:00,51.0,21.0,30.11,WSW,241,6.0,12.0,31,0.00,,,-99.99,,2013-03-06 16:21:00,
2013-03-06 09:32:00,52.0,22.0,30.11,SSW,195,7.0,12.0,30,0.00,,,-99.99,,2013-03-06 16:32:00,
2013-03-06 09:42:00,52.0,22.0,30.11,SSW,195,7.0,12.0,30,0.00,,,-99.99,,2013-03-06 16:42:00,
2013-03-06 09:52:00,51.0,21.0,30.09,SW,232,9.0,12.0,31,0.00,,,-99.99,,2013-03-06 16:52:00,
2013-03-06 10:01:00,52.0,22.0,30.09,WSW,254,6.0,10.0,31,0.00,,,-99.99,,2013-03-06 17:01:00,
2013-03-06 10:11:00,52.0,22.0,30.09,WSW,254,6.0,10.0,31,0.00,,,-99.99,,2013-03-06 17:11:00,
2013-03-06 10:21:00,53.0,22.0,30.09,SSW,208,7.0,11.0,30,0.00,,,-99.99,,2013-03-06 17:21:00,
2013-03-06 10:32:00,53.0,23.0,30.08,SSW,209,8.0,10.0,31,0.00,,,-99.99,,2013-03-06 17:32:00,
2013-03-06 10:42:00,53.0,23.0,30.08,SSW,209,8.0,10.0,31,0.00,,,-99.99,,2013-03-06 17:42:00,
2013-03-06 10:52:00,53.0,22.0,30.08,SSW,202,8.0,13.0,30,0.00,,,-99.99,,2013-03-06 17:52:00,
2013-03-06 11:02:00,54.0,22.0,30.07,SW,234,12.0,12.0,29,0.00,,,-99.99,,2013-03-06 18:02:00,
2013-03-06 11:28:00,53.0,22.0,30.07,SW,216,6.0,13.0,30,0.00,,,-99.99,,2013-03-06 18:28:00,
2013-03-06 11:42:00,53.0,23.0,30.07,South,178,15.0,15.0,31,0.00,,,-99.99,,2013-03-06 18:42:00,
2013-03-06 11:52:00,54.0,22.0,30.06,SW,215,10.0,15.0,29,0.00,,,-99.99,,2013-03-06 18:52:00,
2013-03-06 12:02:00,55.0,23.0,30.04,SW,223,7.0,15.0,29,0.00,,,-99.99,,2013-03-06 19:02:00,
2013-03-06 12:11:00,55.0,23.0,30.04,SW,223,7.0,15.0,29,0.00,,,-99.99,,2013-03-06 19:11:00,
2013-03-06 12:21:00,56.0,23.0,30.03,SSW,213,8.0,16.0,28,0.00,,,-99.99,,2013-03-06 19:21:00,
2013-03-06 12:32:00,56.0,23.0,30.02,WSW,254,13.0,13.0,27,0.00,,,-99.99,,2013-03-06 19:32:00,
2013-03-06 12:43:00,56.0,23.0,30.02,WSW,254,13.0,13.0,27,0.00,,,-99.99,,2013-03-06 19:43:00,
2013-03-06 12:53:00,58.0,23.0,30.01,SSW,194,11.0,13.0,26,0.00,,,-99.99,,2013-03-06 19:53:00,
2013-03-06 13:01:00,58.0,23.0,30.00,SSW,206,9.0,16.0,26,0.00,,,-99.99,,2013-03-06 20:01:00,
2013-03-06 13:11:00,58.0,23.0,30.00,SSW,206,9.0,16.0,26,0.00,,,-99.99,,2013-03-06 20:11:00,
2013-03-06 13:22:00,58.0,22.0,29.98,WSW,250,14.0,14.0,25,0.00,,,-99.99,,2013-03-06 20:22:00,
2013-03-06 13:32:00,59.0,22.0,29.98,SW,233,10.0,18.0,24,0.00,,,-99.99,,2013-03-06 20:32:00,
2013-03-06 13:42:00,59.0,22.0,29.98,SW,233,10.0,18.0,24,0.00,,,-99.99,,2013-03-06 20:42:00,
2013-03-06 13:53:00,60.0,22.0,29.96,SW,219,7.0,16.0,23,0.00,,,-99.99,,2013-03-06 20:53:00,
2013-03-06 14:02:00,59.0,21.0,29.95,SSW,203,6.0,14.0,23,0.00,,,-99.99,,2013-03-06 21:02:00,
2013-03-06 14:11:00,59.0,21.0,29.95,SSW,203,6.0,14.0,23,0.00,,,-99.99,,2013-03-06 21:11:00,
2013-03-06 14:22:00,60.0,21.0,29.94,SW,226,9.0,16.0,22,0.00,,,-99.99,,2013-03-06 21:22:00,
2013-03-06 14:32:00,60.0,20.0,29.93,SW,225,8.0,18.0,21,0.00,,,-99.99,,2013-03-06 21:32:00,
2013-03-06 14:42:00,60.0,20.0,29.93,SW,225,8.0,18.0,21,0.00,,,-99.99,,2013-03-06 21:42:00,
2013-03-06 14:52:00,63.0,22.0,29.93,SSW,192,12.0,18.0,21,0.00,,,-99.99,,2013-03-06 21:52:00,
2013-03-06 15:01:00,61.0,20.0,29.93,SSW,213,10.0,18.0,20,0.00,,,-99.99,,2013-03-06 22:01:00,
2013-03-06 15:11:00,61.0,20.0,29.93,SSW,213,10.0,18.0,20,0.00,,,-99.99,,2013-03-06 22:11:00,
2013-03-06 15:21:00,61.0,18.0,29.92,SW,225,11.0,15.0,19,0.00,,,-99.99,,2013-03-06 22:21:00,
2013-03-06 15:32:00,63.0,21.0,29.91,SW,233,12.0,13.0,20,0.00,,,-99.99,,2013-03-06 22:32:00,
2013-03-06 15:41:00,63.0,21.0,29.91,SW,233,12.0,13.0,20,0.00,,,-99.99,,2013-03-06 22:41:00,
2013-03-06 15:51:00,62.0,20.0,29.91,South,191,9.0,18.0,20,0.00,,,-99.99,,2013-03-06 22:51:00,
2013-03-06 16:01:00,63.0,20.0,29.90,South,189,8.0,16.0,19,0.00,,,-99.99,,2013-03-06 23:01:00,
2013-03-06 16:11:00,63.0,20.0,29.90,South,189,8.0,16.0,19,0.00,,,-99.99,,2013-03-06 23:11:00,
2013-03-06 16:21:00,63.0,20.0,29.90,SSW,206,11.0,14.0,19,0.00,,,-99.99,,2013-03-06 23:21:00,
2013-03-06 16:32:00,63.0,19.0,29.89,SW,227,8.0,15.0,18,0.00,,,-99.99,,2013-03-06 23:32:00,
2013-03-06 16:42:00,64.0,18.0,29.88,SW,215,13.0,13.0,17,0.00,,,-99.99,,2013-03-06 23:42:00,
2013-03-06 16:52:00,64.0,18.0,29.88,SW,215,13.0,13.0,17,0.00,,,-99.99,,2013-03-06 23:52:00,
2013-03-06 17:01:00,63.0,18.0,29.88,South,174,13.0,20.0,17,0.00,,,-99.99,,2013-03-07 00:01:00,
2013-03-06 17:11:00,63.0,18.0,29.88,South,174,13.0,20.0,17,0.00,,,-99.99,,2013-03-07 00:11:00,
2013-03-06 17:21:00,64.0,18.0,29.88,SSW,194,8.0,16.0,17,0.00,,,-99.99,,2013-03-07 00:21:00,
2013-03-06 17:32:00,64.0,17.0,29.88,SSW,205,8.0,14.0,16,0.00,,,-99.99,,2013-03-07 00:32:00,
2013-03-06 17:42:00,64.0,17.0,29.88,SSW,205,8.0,14.0,16,0.00,,,-99.99,,2013-03-07 00:42:00,
2013-03-06 17:52:00,63.0,18.0,29.88,SSW,205,7.0,11.0,17,0.00,,,-99.99,,2013-03-07 00:52:00,
2013-03-06 18:01:00,63.0,18.0,29.88,South,174,8.0,10.0,17,0.00,,,-99.99,,2013-03-07 01:01:00,
2013-03-06 18:11:00,63.0,18.0,29.88,South,174,8.0,10.0,17,0.00,,,-99.99,,2013-03-07 01:11:00,
2013-03-06 18:21:00,62.0,18.0,29.89,South,189,10.0,12.0,18,0.00,,,-99.99,,2013-03-07 01:21:00,
2013-03-06 18:31:00,62.0,20.0,29.90,SSW,195,10.0,17.0,20,0.00,,,-99.99,,2013-03-07 01:31:00,
2013-03-06 18:41:00,62.0,20.0,29.90,SSW,195,10.0,17.0,20,0.00,,,-99.99,,2013-03-07 01:41:00,
2013-03-06 18:52:00,61.0,21.0,29.91,SSW,196,7.0,9.0,21,0.00,,,-99.99,,2013-03-07 01:52:00,
2013-03-06 19:01:00,60.0,21.0,29.91,SSW,199,6.0,7.0,22,0.00,,,-99.99,,2013-03-07 02:01:00,
2013-03-06 19:11:00,60.0,21.0,29.91,SSW,199,6.0,7.0,22,0.00,,,-99.99,,2013-03-07 02:11:00,
2013-03-06 19:21:00,59.0,22.0,29.93,SSW,198,8.0,11.0,24,0.00,,,-99.99,,2013-03-07 02:21:00,
2013-03-06 19:32:00,59.0,22.0,29.93,South,185,5.0,8.0,24,0.00,,,-99.99,,2013-03-07 02:32:00,
2013-03-06 19:41:00,59.0,22.0,29.93,South,185,5.0,8.0,24,0.00,,,-99.99,,2013-03-07 02:41:00,
2013-03-06 19:52:00,59.0,22.0,29.93,South,185,5.0,8.0,24,0.00,,,-99.99,,2013-03-07 02:52:00,
2013-03-06 20:01:00,58.0,23.0,29.93,SSW,192,4.0,8.0,26,0.00,,,-99.99,,2013-03-07 03:01:00,
2013-03-06 20:11:00,58.0,23.0,29.94,South,185,8.0,9.0,26,0.00,,,-99.99,,2013-03-07 03:11:00,
2013-03-06 20:21:00,58.0,23.0,29.94,South,185,8.0,9.0,26,0.00,,,-99.99,,2013-03-07 03:21:00,
2013-03-06 20:32:00,57.0,23.0,29.95,South,172,4.0,8.0,27,0.00,,,-99.99,,2013-03-07 03:32:00,
2013-03-06 20:42:00,57.0,23.0,29.95,South,172,4.0,8.0,27,0.00,,,-99.99,,2013-03-07 03:42:00,
2013-03-06 20:52:00,56.0,23.0,29.95,SSE,165,7.0,9.0,28,0.00,,,-99.99,,2013-03-07 03:52:00,
2013-03-06 21:01:00,56.0,23.0,29.96,South,171,7.0,9.0,28,0.00,,,-99.99,,2013-03-07 04:01:00,
2013-03-06 21:11:00,56.0,23.0,29.96,South,171,7.0,9.0,28,0.00,,,-99.99,,2013-03-07 04:11:00,
2013-03-06 21:21:00,55.0,23.0,29.96,South,175,7.0,8.0,29,0.00,,,-99.99,,2013-03-07 04:21:00,
2013-03-06 21:31:00,55.0,23.0,29.96,SSE,151,7.0,9.0,28,0.00,,,-99.99,,2013-03-07 04:31:00,
2013-03-06 21:42:00,55.0,23.0,29.96,SSE,151,7.0,9.0,28,0.00,,,-99.99,,2013-03-07 04:42:00,
2013-03-06 21:52:00,55.0,23.0,29.96,SSE,160,7.0,10.0,28,0.00,,,-99.99,,2013-03-07 04:52:00,
2013-03-06 22:01:00,55.0,23.0,29.98,South,172,7.0,9.0,28,0.00,,,-99.99,,2013-03-07 05:01:00,
2013-03-06 22:12:00,55.0,23.0,29.98,South,172,7.0,9.0,28,0.00,,,-99.99,,2013-03-07 05:12:00,
2013-03-06 22:22:00,54.0,22.0,29.98,SSE,164,5.0,7.0,29,0.00,,,-99.99,,2013-03-07 05:22:00,
2013-03-06 22:32:00,53.0,21.0,29.99,South,184,8.0,8.0,28,0.00,,,-99.99,,2013-03-07 05:32:00,
2013-03-06 22:42:00,53.0,21.0,29.99,South,184,8.0,8.0,28,0.00,,,-99.99,,2013-03-07 05:42:00,
2013-03-06 22:52:00,53.0,22.0,29.99,SSE,167,4.0,13.0,30,0.00,,,-99.99,,2013-03-07 05:52:00,
2013-03-06 23:01:00,52.0,22.0,29.99,SSE,164,7.0,10.0,31,0.00,,,-99.99,,2013-03-07 06:01:00,
2013-03-06 23:11:00,52.0,22.0,29.99,SSE,164,7.0,10.0,31,0.00,,,-99.99,,2013-03-07 06:11:00,
2013-03-06 23:21:00,53.0,22.0,30.00,SSE,163,8.0,8.0,30,0.00,,,-99.99,,2013-03-07 06:21:00,
2013-03-06 23:31:00,53.0,22.0,30.00,SSW,194,2.0,10.0,30,0.00,,,-99.99,,2013-03-07 06:31:00,
2013-03-06 23:41:00,52.0,22.0,30.00,SSE,154,4.0,7.0,30,0.00,,,-99.99,,2013-03-07 06:41:00,
2013-03-06 23:51:00,52.0,22.0,30.00,SSE,154,4.0,7.0,30,0.00,,,-99.99,,2013-03-07 06:51:00,